Temp
60 60 60 60 60 60 60 60 59 60 60 60 60 60 60 60 59 52 45 54 54 63 66 63 63 61 61 57 58 54 43 38 44 50 54 61 63 68 73 71 75 78 78 80 77
60 60 60 60 60 59 59 59 59 59 59 60 60 60 60 60 50 46 57 62 65 66 58 60 58 61 54 55 56 52 41 47 50 58 50 61 62 64 67 67 69 74 78 78 77
59 60 60 60 59 59 59 59 59 59 59 59 59 59 60 58 43 56 70 65 66 67 62 63 61 59 49 50 53 51 49 52 54 58 60 62 61 66 65 63 69 72 72 75 75
59 59 59 59 59 59 58 58 59 59 59 59 59 59 59 49 50 59 71 67 68 64 61 60 56 52 47 48 52 46 53 57 54 61 59 58 61 63 65 68 75 75 75 75 73
58 58 58 58 58 58 58 58 58 58 58 58 58 58 50 42 46 62 70 68 65 61 57 56 51 48 45 47 49 46 51 56 59 59 58 61 60 59 63 70 72 75 75 73 74
58 58 58 58 57 57 57 57 57 57 57 58 58 58 45 42 60 63 64 64 62 58 57 55 54 53 48 48 48 52 53 56 58 57 57 58 58 60 67 69 69 71 73 74 76
57 57 57 57 57 57 57 57 56 57 59 59 59 56 46 47 60 59 58 59 61 61 57 59 59 57 53 47 53 53 48 53 52 55 54 58 54 59 66 70 69 68 69 71 72
57 56 56 56 57 57 57 57 56 59 60 60 60 54 43 58 57 57 57 59 63 63 62 61 61 53 50 54 53 47 43 37 49 54 57 59 50 61 66 67 65 68 69 70 70
57 56 56 56 57 57 56 55 57 60 60 60 50 45 44 63 60 66 61 61 62 62 61 70 59 52 51 44 39 40 35 38 47 54 55 55 50 57 64 63 62 65 67 69 69
57 56 55 56 56 55 55 55 57 57 58 58 57 45 51 57 65 68 67 64 60 59 56 55 50 44 40 39 31 35 37 39 42 49 51 50 51 57 59 61 61 62 65 67 67
57 56 55 55 55 55 50 47 49 46 47 48 53 53 58 64 68 64 67 62 61 55 45 49 40 35 41 46 48 46 42 41 47 52 49 49 50 53 57 57 57 59 60 64 66
56 55 55 55 55 54 46 50 52 51 42 56 55 56 61 61 55 60 65 55 52 44 50 44 38 47 51 49 46 44 41 41 46 51 48 48 48 54 58 59 59 60 61 61 66
55 55 55 55 54 48 43 52 54 50 41 50 57 56 58 58 53 55 60 55 51 48 43 42 45 52 50 47 45 44 42 42 42 48 50 47 44 48 55 57 60 60 63 63 63
55 55 55 54 50 42 50 54 51 49 34 44 53 57 58 62 54 64 65 57 51 46 48 44 48 47 46 45 47 39 49 48 48 45 33 45 31 43 48 51 55 59 59 64 63
54 55 54 53 41 45 54 51 52 51 24 50 51 61 58 51 56 56 61 56 46 45 44 39 47 46 41 43 48 43 51 47 47 43 38 38 32 38 47 49 51 55 58 60 66
54 54 53 47 42 46 49 50 50 35 26 43 50 49 48 49 51 56 56 58 53 42 44 41 50 47 45 51 49 50 44 42 40 37 31 37 36 36 44 48 52 56 58 61 62
54 53 50 50 48 50 49 48 33 26 46 40 41 46 45 42 45 47 44 39 33 27 29 39 39 47 50 42 49 44 38 26 23 24 27 38 34 42 48 52 56 58 58 60 61
52 51 48 52 49 47 49 40 27 37 37 45 44 44 39 42 40 41 39 33 38 35 28 26 26 40 48 42 40 40 37 26 15 18 26 38 34 42 53 58 58 60 59 60 60
50 41 46 56 54 48 44 29 29 38 43 39 41 36 36 40 38 36 35 34 37 36 24 26 28 44 47 49 45 38 33 42 33 32 26 32 39 48 54 53 53 55 58 56 57
39 37 46 56 50 47 37 34 36 45 45 43 32 36 29 33 32 33 33 40 39 41 39 34 26 40 44 47 48 42 46 33 31 23 21 28 32 36 44 46 52 52 52 52 53
36 40 52 54 49 40 28 30 39 48 45 39 35 33 34 30 33 33 33 40 44 42 41 37 32 35 41 37 34 35 36 36 34 30 27 26 30 42 48 50 47 49 51 51 51
35 36 49 49 34 29 27 35 43 43 45 42 40 37 33 33 29 32 31 38 47 44 34 38 32 26 33 42 45 43 37 35 28 26 33 31 31 47 46 47 48 49 52 51 51
37 35 45 45 26 25 31 36 40 40 40 38 36 40 39 31 28 32 33 43 45 40 36 37 32 25 29 34 41 38 40 39 37 37 32 26 30 46 46 46 48 48 49 50 51
33 30 34 35 33 28 27 30 33 42 40 41 38 41 34 32 37 31 33 40 44 41 47 44 33 30 24 30 34 33 39 38 34 28 28 32 36 43 45 45 48 48 48 49 50
32 28 31 26 29 28 26 31 31 31 38 38 37 38 31 28 30 31 35 36 39 44 42 38 31 35 34 36 36 36 35 37 33 34 29 34 35 41 43 44 48 49 50 51 51
30 29 31 28 30 28 29 28 30 32 33 32 31 35 33 30 31 31 33 34 33 39 38 36 24 28 28 36 37 34 38 39 39 39 37 38 36 47 48 48 47 49 50 50 51
33 33 36 30 28 26 27 30 31 32 36 37 36 32 33 36 39 39 39 39 37 35 35 34 31 28 24 35 34 30 36 35 39 40 38 34 41 47 46 47 49 49 51 50 53
MSLP
1019.89 1019.40 1018.87 1018.40 1017.90 1017.40 1016.97 1016.53 1016.06 1015.59 1015.11 1014.66 1014.30 1013.91 1013.53 1013.07 1012.56 1012.52 1011.63 1008.71 1008.38 1008.37 1008.53 1008.56 1008.86 1009.26 1009.43 1009.80 1009.93 1010.51 1011.26 1010.68 1009.22 1008.34 1006.73 1005.35 1004.68 1003.98 1003.59 1003.30 1002.98 1002.44 1002.44 1001.90 1002.74
1019.92 1019.41 1018.89 1018.34 1017.74 1017.16 1016.65 1016.20 1015.77 1015.30 1014.80 1014.36 1014.02 1013.72 1013.47 1012.97 1012.48 1011.17 1007.77 1007.72 1007.84 1008.01 1008.53 1008.41 1008.82 1009.16 1009.66 1009.82 1010.01 1010.22 1010.37 1008.86 1007.86 1007.24 1006.54 1005.79 1004.97 1004.48 1003.96 1003.76 1003.34 1002.90 1002.59 1002.83 1003.11
1019.82 1019.20 1018.61 1018.08 1017.51 1016.85 1016.27 1015.73 1015.34 1014.85 1014.43 1014.09 1013.77 1013.50 1013.27 1012.99 1012.42 1008.20 1006.51 1007.07 1007.54 1007.81 1007.97 1008.07 1008.41 1008.98 1009.71 1009.83 1009.80 1009.47 1008.29 1007.83 1007.30 1006.70 1006.34 1005.85 1005.29 1004.89 1004.27 1003.57 1003.27 1002.98 1003.07 1003.39 1003.79
1019.79 1019.11 1018.46 1017.89 1017.24 1016.49 1015.81 1015.43 1014.90 1014.31 1013.94 1013.70 1013.49 1013.31 1013.11 1013.16 1010.99 1007.31 1006.74 1007.22 1007.53 1007.90 1008.01 1008.14 1008.65 1009.21 1009.71 1009.66 1009.20 1009.06 1007.97 1007.80 1007.19 1006.52 1006.33 1005.97 1005.40 1004.66 1004.13 1003.01 1002.91 1002.45 1003.01 1003.27 1003.77
1019.74 1019.06 1018.35 1017.59 1016.85 1016.12 1015.37 1014.82 1014.34 1013.84 1013.48 1013.21 1013.10 1013.12 1013.27 1012.71 1009.67 1007.49 1007.23 1007.35 1007.71 1008.15 1008.12 1008.24 1008.76 1009.27 1009.41 1009.31 1009.07 1008.77 1007.94 1007.42 1007.00 1006.88 1006.57 1006.17 1005.39 1005.06 1003.18 1003.33 1003.26 1003.04 1002.33 1002.92 1003.15
1019.71 1019.02 1018.28 1017.41 1016.47 1015.84 1015.04 1014.33 1013.60 1013.11 1012.72 1012.45 1012.63 1012.87 1013.23 1011.50 1007.88 1007.77 1007.66 1007.71 1007.78 1008.10 1008.20 1008.33 1008.39 1008.59 1008.86 1008.91 1008.90 1008.07 1007.63 1007.34 1007.00 1006.89 1006.59 1006.10 1005.28 1004.86 1001.97 1002.74 1002.89 1002.86 1002.21 1001.78 1002.19
1019.48 1018.78 1018.05 1017.24 1016.30 1015.50 1014.63 1013.94 1013.10 1012.34 1011.67 1011.64 1012.15 1012.67 1012.68 1009.61 1007.86 1007.80 1007.75 1007.43 1007.57 1007.72 1007.86 1007.75 1007.99 1008.21 1008.51 1008.72 1008.24 1007.95 1007.91 1007.36 1006.83 1006.51 1006.09 1005.70 1004.47 1001.80 1003.32 1003.19 1002.93 1002.82 1002.29 1001.36 1001.47
1019.33 1018.50 1017.68 1016.86 1015.88 1014.95 1014.04 1013.30 1012.65 1011.82 1011.45 1011.67 1012.05 1012.39 1011.15 1008.40 1007.97 1007.72 1007.37 1007.17 1007.09 1007.34 1007.42 1007.41 1007.86 1008.37 1008.48 1008.26 1008.18 1008.27 1008.13 1007.83 1006.67 1006.05 1005.38 1005.33 1001.84 1002.12 1002.08 1002.42 1002.46 1002.42 1002.12 1001.61 1000.68
1019.17 1018.28 1017.44 1016.62 1015.63 1014.66 1013.67 1012.90 1012.25 1011.92 1011.83 1011.88 1012.24 1012.26 1009.64 1007.80 1007.70 1006.77 1006.81 1006.68 1006.45 1006.88 1007.21 1007.48 1007.88 1008.30 1008.45 1008.84 1009.13 1008.74 1008.42 1007.95 1007.10 1005.89 1005.39 1005.01 1002.84 1002.70 1002.09 1002.22 1002.23 1002.19 1001.84 1001.52 1001.07
1018.87 1017.95 1017.09 1016.16 1015.35 1014.43 1013.34 1012.42 1012.29 1012.23 1012.33 1012.18 1012.01 1012.10 1009.55 1008.14 1007.37 1006.77 1005.89 1006.16 1006.33 1006.56 1007.39 1007.68 1008.12 1008.53 1009.07 1009.39 1009.06 1008.91 1008.40 1007.69 1006.97 1006.11 1005.59 1004.95 1003.96 1003.49 1002.84 1002.84 1002.60 1002.29 1001.91 1001.46 1001.04
1018.64 1017.54 1016.63 1015.58 1014.89 1014.22 1013.28 1012.67 1012.91 1012.61 1012.24 1011.88 1011.00 1010.91 1009.27 1008.01 1007.43 1007.07 1006.03 1006.20 1006.25 1006.72 1007.47 1007.66 1008.20 1008.56 1008.73 1008.30 1007.94 1008.07 1007.94 1007.53 1006.92 1006.49 1006.15 1005.07 1004.40 1003.97 1003.54 1003.21 1002.77 1002.41 1002.24 1001.58 1000.89
1018.53 1017.38 1016.19 1015.11 1014.28 1013.77 1013.53 1013.53 1013.75 1014.10 1012.37 1010.38 1009.85 1009.78 1008.74 1008.18 1008.01 1007.45 1006.72 1007.01 1007.28 1007.65 1007.57 1007.90 1007.80 1007.74 1007.47 1007.40 1007.65 1007.58 1007.57 1007.16 1006.65 1006.28 1006.14 1005.30 1003.82 1003.81 1003.01 1002.62 1002.66 1002.46 1001.98 1001.46 1000.72
1018.39 1017.46 1016.08 1014.76 1014.08 1013.90 1014.21 1013.60 1013.42 1013.39 1013.06 1010.42 1009.46 1008.91 1008.58 1008.25 1008.35 1008.31 1007.97 1007.66 1007.88 1008.09 1008.19 1008.36 1007.90 1007.37 1006.98 1007.02 1007.09 1006.96 1006.92 1006.63 1006.60 1006.27 1005.93 1005.57 1003.50 1003.31 1002.24 1001.85 1001.97 1001.46 1001.12 1000.79 1000.41
1018.35 1017.14 1016.15 1014.42 1014.19 1015.03 1014.01 1013.35 1013.18 1013.11 1012.62 1010.97 1009.52 1008.94 1008.68 1008.16 1008.51 1008.52 1008.35 1008.46 1008.14 1008.08 1008.04 1008.18 1007.42 1007.11 1006.71 1006.51 1006.48 1006.32 1006.02 1006.17 1006.36 1006.55 1006.36 1005.43 1003.96 1002.81 1001.96 1001.11 1000.96 1000.62 1000.45 1000.04 999.83
1018.21 1017.02 1016.03 1015.09 1015.78 1015.16 1014.01 1013.19 1012.70 1012.77 1012.88 1010.94 1010.10 1009.01 1009.43 1009.54 1009.45 1008.86 1008.74 1008.61 1008.47 1008.63 1009.22 1007.62 1007.19 1007.03 1007.27 1006.55 1006.24 1005.62 1005.68 1005.85 1006.13 1006.45 1007.16 1006.22 1005.50 1002.80 1001.72 1001.05 1000.20 999.91 999.54 999.43 998.96
1018.02 1017.04 1016.10 1015.75 1015.77 1014.65 1013.74 1013.08 1012.84 1013.53 1012.80 1011.92 1011.11 1010.49 1010.36 1010.04 1009.92 1009.24 1009.12 1009.10 1008.87 1009.15 1009.11 1008.56 1007.68 1007.37 1006.15 1005.83 1005.86 1005.64 1005.96 1006.41 1006.60 1006.85 1006.80 1005.62 1005.28 1002.26 1001.67 1000.58 999.71 999.24 998.65 998.53 998.45
1017.84 1016.92 1016.23 1016.07 1015.67 1014.16 1013.83 1013.58 1014.09 1014.12 1013.67 1013.33 1012.47 1011.92 1011.46 1011.08 1010.48 1010.28 1010.16 1009.96 1010.03 1010.17 1009.79 1008.56 1007.42 1006.07 1006.15 1005.85 1005.77 1005.98 1006.72 1007.47 1007.67 1007.57 1006.16 1004.84 1004.71 1001.44 1000.33 999.44 998.73 998.59 998.52 998.14 998.23
1017.77 1016.71 1016.12 1015.57 1014.80 1014.42 1014.27 1014.63 1015.19 1015.37 1014.90 1014.51 1013.62 1012.68 1012.34 1011.93 1011.58 1011.18 1010.83 1010.76 1010.70 1011.09 1010.78 1009.93 1007.91 1006.27 1005.57 1005.33 1005.50 1005.77 1006.28 1007.39 1007.16 1006.97 1005.98 1004.92 1003.46 999.91 998.98 998.21 998.10 998.03 997.84 997.92 997.83
1017.61 1016.92 1016.40 1015.11 1014.45 1014.51 1015.19 1016.14 1016.42 1016.04 1015.78 1014.87 1013.75 1013.25 1013.20 1013.23 1013.26 1012.41 1011.83 1011.32 1011.32 1011.68 1011.90 1010.85 1008.69 1006.56 1005.87 1005.59 1005.78 1005.63 1005.75 1005.98 1007.00 1006.72 1006.18 1004.68 1002.37 999.45 998.93 997.97 997.96 998.01 997.91 997.87 997.97
1018.86 1018.16 1016.70 1015.61 1014.83 1015.10 1016.29 1017.24 1016.93 1016.35 1015.94 1015.50 1015.20 1014.82 1014.48 1014.08 1013.96 1013.64 1012.53 1011.41 1011.34 1011.59 1011.91 1011.46 1009.27 1006.83 1005.73 1005.07 1005.14 1004.82 1004.65 1006.15 1006.77 1006.65 1006.03 1004.25 1002.64 999.77 998.65 998.09 997.80 998.01 998.12 998.16 998.06
1019.22 1018.34 1016.76 1015.75 1015.45 1016.92 1018.67 1018.67 1017.63 1016.72 1016.51 1016.10 1015.69 1015.51 1015.34 1015.23 1014.99 1014.18 1012.97 1011.66 1011.15 1011.51 1011.56 1011.10 1010.07 1007.44 1006.44 1005.45 1004.79 1005.02 1004.99 1005.44 1005.71 1005.92 1005.20 1004.24 1001.24 999.36 998.65 998.16 998.34 998.10 998.39 998.69 998.23
1020.41 1019.70 1017.78 1016.52 1018.27 1020.08 1020.41 1019.80 1018.54 1017.29 1016.80 1016.31 1016.02 1015.81 1015.73 1015.69 1015.25 1014.44 1012.96 1011.84 1011.04 1011.57 1011.27 1010.98 1010.38 1008.39 1006.45 1005.66 1005.03 1005.03 1004.95 1005.03 1005.52 1005.70 1005.20 1004.28 1000.53 999.29 998.79 998.65 998.61 998.60 998.38 998.21 998.38
1021.86 1021.13 1018.83 1018.33 1021.05 1021.98 1021.37 1020.30 1019.27 1018.16 1017.48 1016.92 1016.66 1016.20 1016.26 1016.23 1015.64 1014.26 1012.85 1011.78 1011.52 1011.60 1011.44 1011.15 1010.03 1008.67 1006.29 1005.62 1005.34 1005.15 1005.22 1005.23 1005.25 1005.34 1004.74 1003.95 1001.01 999.99 999.57 999.27 998.96 998.85 998.42 998.15 997.90
1022.18 1022.09 1021.31 1021.37 1022.42 1022.74 1022.38 1021.17 1019.99 1018.89 1017.94 1017.60 1016.99 1016.33 1016.55 1015.90 1015.17 1013.91 1012.96 1012.09 1011.28 1011.00 1010.41 1010.21 1009.66 1009.15 1008.09 1007.12 1006.53 1005.81 1005.44 1005.31 1005.34 1005.38 1004.23 1002.53 1001.02 1000.18 999.88 1000.01 999.53 998.84 998.34 998.06 997.56
1023.46 1024.42 1024.13 1023.60 1023.15 1023.26 1022.79 1021.80 1020.75 1019.95 1018.86 1018.16 1017.09 1016.75 1016.92 1015.66 1014.49 1013.60 1012.85 1012.28 1011.48 1010.68 1010.07 1010.38 1009.71 1008.91 1007.92 1007.06 1006.50 1005.94 1005.57 1005.24 1004.99 1004.65 1004.29 1002.17 1001.39 999.81 999.93 999.77 999.19 998.70 998.03 997.49 997.13
1024.71 1025.05 1024.67 1024.29 1023.85 1023.54 1022.80 1022.03 1021.42 1020.60 1020.27 1018.53 1017.84 1016.75 1016.67 1015.88 1014.97 1013.34 1012.96 1012.18 1011.65 1010.77 1010.58 1010.57 1010.05 1009.22 1007.53 1006.24 1005.77 1005.09 1004.47 1004.10 1003.86 1003.59 1003.00 1002.26 1000.47 999.53 999.14 999.13 998.58 998.18 998.04 997.59 996.84
1024.98 1025.17 1025.06 1024.48 1024.12 1023.87 1023.12 1022.37 1021.67 1021.34 1019.53 1018.71 1017.99 1017.23 1015.65 1014.73 1014.11 1012.71 1012.12 1011.60 1011.56 1011.36 1011.08 1010.95 1010.39 1009.69 1007.74 1006.17 1005.28 1004.59 1003.94 1003.95 1003.28 1002.79 1002.34 1001.31 999.14 999.01 998.65 998.79 998.67 998.45 998.09 997.64 996.84
Wind_Speed
20 20 20 20 21 21 20 20 19 19 18 18 17 17 17 19 21 10 11 15 10 16 3 3 6 5 4 3 4 5 2 6 8 10 6 4 7 2 1 2 5 4 4 4 17
20 20 21 21 22 21 22 21 19 19 18 18 17 16 16 17 13 11 14 13 17 3 7 8 6 8 4 6 4 5 6 11 4 8 1 5 2 3 3 2 3 7 9 9 16
22 23 23 23 24 22 23 23 21 20 19 17 15 15 14 11 5 7 4 15 13 9 3 5 6 5 4 3 6 7 11 3 3 4 6 7 4 3 4 8 7 8 2 8 9
24 25 25 25 25 25 26 24 24 23 20 17 14 12 10 1 6 3 9 10 10 8 2 6 4 7 6 7 6 5 8 9 2 6 4 5 3 5 9 14 6 10 5 6 11
25 26 26 27 27 26 26 26 25 23 20 16 12 8 3 1 12 6 10 8 6 6 4 6 5 6 7 5 3 4 4 3 8 9 9 8 13 7 20 10 6 10 13 8 11
24 25 26 27 27 26 26 26 26 23 21 13 7 3 2 4 2 4 8 6 5 5 5 6 7 6 4 4 6 3 5 10 10 10 5 7 9 6 13 6 10 12 19 14 12
24 24 26 27 27 27 27 27 26 25 15 4 8 4 2 15 3 7 4 4 4 7 6 6 5 6 4 2 5 5 6 8 4 6 8 9 15 34 5 12 14 11 13 12 8
25 25 26 28 29 29 30 27 26 12 6 9 10 4 9 5 4 10 2 4 6 7 5 2 4 1 3 4 6 3 0 1 5 5 7 13 25 6 12 11 11 9 9 10 11
25 25 26 28 29 29 29 29 12 8 11 12 4 3 10 5 4 6 5 4 4 5 3 3 5 5 1 4 4 3 3 3 5 4 3 10 7 1 2 8 9 9 10 9 11
26 26 27 28 29 29 30 19 2 7 5 4 2 3 4 10 10 11 6 4 2 5 2 3 3 4 3 4 6 6 5 5 6 3 4 11 13 10 8 5 8 9 9 9 9
28 29 29 29 29 26 16 4 5 4 2 5 11 4 15 5 6 9 7 1 2 2 6 5 4 6 12 13 12 9 7 10 8 7 8 16 16 11 9 8 9 8 9 9 10
29 30 31 32 29 25 2 5 5 3 10 8 9 6 9 3 4 15 9 8 6 4 6 1 6 9 15 10 10 9 11 13 8 9 8 14 23 17 19 17 12 11 12 11 9
29 29 31 32 30 5 2 1 4 2 2 8 4 0 5 4 2 8 7 4 4 9 3 4 8 13 11 9 11 11 14 11 12 5 9 10 20 15 14 11 10 10 13 10 12
30 31 30 31 5 5 2 5 8 3 5 7 6 4 7 9 7 7 7 5 3 7 6 8 5 3 9 10 10 13 9 13 13 6 5 4 9 5 8 12 10 12 11 14 12
31 33 30 8 3 4 7 11 9 3 3 4 5 2 7 5 6 2 2 4 8 7 4 10 14 14 11 6 3 9 6 10 10 7 3 4 5 5 7 10 10 10 11 12 15
33 32 26 3 1 7 9 10 3 6 4 6 5 12 16 2 6 3 6 7 5 4 5 14 9 10 11 13 8 4 2 3 1 3 7 15 11 6 8 10 7 7 10 11 11
33 32 11 2 5 7 8 5 6 4 10 8 11 15 17 5 7 3 6 5 0 5 4 16 10 8 18 10 10 2 3 3 2 2 9 4 7 18 6 9 12 12 8 10 7
32 23 5 3 6 5 4 7 6 5 4 11 11 20 7 9 3 9 10 6 2 3 4 5 9 2 8 15 3 5 9 5 7 4 5 4 6 16 16 18 8 12 11 8 8
25 5 4 9 6 2 7 5 2 6 9 9 15 4 4 4 7 7 8 5 2 1 2 5 7 7 9 5 9 5 7 12 5 2 3 4 9 15 12 16 6 9 8 10 9
5 4 5 15 6 5 6 3 4 7 7 5 4 5 7 7 7 11 4 5 1 4 4 3 13 6 5 1 11 11 5 4 2 5 5 5 7 11 4 4 6 6 6 7 5
4 4 7 15 4 8 5 4 5 8 11 4 4 8 6 5 7 8 6 10 5 5 2 6 7 8 3 4 4 2 6 3 3 4 4 2 9 6 15 11 4 6 6 7 8
4 4 6 7 8 3 3 6 7 6 5 5 5 7 3 5 6 9 7 5 10 8 8 2 5 7 6 10 9 7 3 5 4 5 5 3 11 3 4 3 4 6 8 7 6
3 3 5 6 6 4 6 6 4 6 8 3 5 4 4 7 8 7 7 5 11 6 4 3 4 5 7 0 5 2 2 0 2 2 6 4 6 2 5 8 8 9 8 8 7
3 5 5 6 2 2 4 5 6 6 10 7 11 10 6 15 13 7 11 9 11 18 24 12 4 7 2 3 2 5 6 3 4 2 3 10 14 15 11 9 15 10 9 8 10
5 1 1 5 4 4 2 3 5 7 4 7 5 5 14 9 16 5 6 7 12 10 4 4 4 5 9 12 10 11 12 12 9 7 7 6 13 16 8 11 14 8 8 10 12
3 4 4 3 4 6 4 2 5 4 5 8 6 17 18 8 14 21 19 13 4 4 5 3 5 5 7 9 7 9 10 11 14 14 17 19 27 20 19 15 12 11 8 10 12
1 1 0 4 3 3 2 3 7 13 9 11 11 20 17 12 18 24 20 18 12 5 3 4 4 4 6 7 12 6 2 4 8 10 11 14 22 14 15 6 5 8 10 7 8
Wind_Direction
348 344 340 336 333 330 327 326 322 319 314 310 309 313 312 311 310 297 248 223 190 236 310 148 124 169 107 169 137 132 112 228 221 174 223 242 189 144 304 215 336 282 332 276 141
347 344 341 339 335 330 327 327 322 319 316 312 309 313 315 318 306 258 247 221 215 293 158 163 144 138 158 180 189 160 181 222 222 215 1 302 251 6 344 45 279 298 353 116 145
347 345 343 341 337 331 327 328 325 321 318 314 309 311 317 333 316 253 289 209 207 203 205 171 122 133 170 143 200 201 233 189 195 181 184 246 271 239 256 268 201 222 8 156 163
346 344 342 339 335 330 326 327 324 323 320 314 309 308 317 16 303 22 21 170 178 161 127 125 107 146 184 198 216 249 241 246 275 239 208 234 235 244 221 243 295 275 134 179 183
344 342 339 336 332 328 324 323 322 321 316 308 300 302 13 324 251 310 341 148 151 144 189 148 144 139 179 203 209 257 268 231 240 245 256 289 264 248 256 253 240 266 281 215 203
341 338 336 332 327 327 322 322 321 318 311 287 260 208 123 277 199 359 0 137 182 162 182 148 197 191 209 211 172 248 247 263 264 264 239 247 262 207 252 234 218 219 255 261 213
338 334 332 330 326 326 322 323 322 317 308 242 187 159 194 242 332 328 303 200 180 194 183 208 154 164 153 246 234 259 316 319 235 202 220 203 258 239 202 272 271 239 249 262 219
336 333 331 329 326 326 325 325 323 326 76 128 150 150 250 252 281 300 204 251 209 208 234 243 136 283 201 311 359 272 312 340 279 193 234 155 257 355 194 190 223 240 258 260 265
334 330 328 327 325 326 325 325 329 85 111 126 119 114 276 301 335 313 193 210 202 198 252 276 125 199 172 144 348 346 241 220 305 196 308 202 281 311 172 200 229 227 227 237 267
334 329 328 325 327 326 325 319 204 95 116 182 166 321 269 324 319 318 274 207 195 147 331 198 167 174 55 121 231 225 226 216 215 279 320 274 270 314 325 303 255 246 247 252 238
334 330 329 325 329 330 334 9 12 345 163 226 257 224 282 283 323 340 343 38 341 142 175 205 156 195 205 212 220 224 240 261 250 264 296 276 289 285 284 291 301 276 260 251 238
335 332 330 329 330 328 50 66 76 279 303 279 251 213 263 256 349 1 4 36 32 314 329 294 240 226 223 223 221 223 240 259 269 250 243 271 270 269 264 262 242 251 264 256 254
336 333 330 329 325 32 339 192 340 301 282 307 296 180 2 353 116 352 16 336 353 315 349 280 272 292 233 233 222 230 231 244 244 251 256 281 281 254 254 245 238 228 238 244 234
336 333 336 329 51 325 327 329 313 233 47 291 359 19 348 318 354 355 3 331 308 240 244 266 259 346 266 245 224 245 222 243 250 253 238 143 282 206 229 247 217 228 220 239 240
338 335 340 15 287 352 302 319 313 78 348 15 22 330 333 74 312 76 96 317 257 270 336 240 262 282 277 249 275 266 201 221 220 225 288 264 255 256 209 237 240 222 223 232 242
337 335 338 3 28 245 304 310 50 52 274 335 332 344 342 355 319 298 304 319 258 284 232 255 260 252 235 242 230 355 5 346 293 180 232 233 209 225 216 224 249 227 231 218 237
334 331 329 324 310 310 314 26 35 73 352 357 329 335 323 323 319 15 315 330 47 358 305 303 258 247 228 259 238 113 94 275 318 196 239 204 206 245 254 226 227 239 235 254 236
334 324 286 221 278 320 21 32 48 14 342 322 315 306 290 5 314 325 331 349 359 62 276 323 321 230 200 224 226 179 166 234 194 186 241 341 213 255 220 246 225 226 239 247 262
333 332 331 336 326 42 69 40 32 5 340 308 315 306 321 347 338 336 324 291 202 130 107 306 255 318 298 263 187 172 215 226 290 302 359 242 269 288 248 248 224 242 240 242 246
335 334 334 338 357 45 69 356 348 7 332 305 297 8 313 326 342 351 296 265 311 149 139 274 292 252 297 171 228 225 175 167 197 207 227 253 252 235 14 156 211 248 243 263 265
28 36 316 341 44 42 81 301 299 350 357 324 282 288 277 347 329 304 266 289 276 2 277 265 238 299 331 233 228 153 209 164 156 170 202 239 254 213 226 249 213 269 279 259 275
358 40 318 353 52 27 360 306 283 339 6 291 318 287 277 336 296 283 243 235 331 345 304 305 292 281 250 246 313 273 217 165 172 206 219 268 261 275 185 170 190 256 277 289 270
24 297 322 46 65 342 303 300 295 317 326 327 291 262 15 322 295 252 268 272 311 339 345 306 260 313 303 317 221 94 144 4 67 84 220 215 262 122 337 332 309 293 297 295 295
48 6 336 33 83 95 336 286 321 315 298 335 286 274 346 304 281 281 279 307 317 313 295 270 257 256 256 309 3 317 314 229 151 198 254 239 282 283 304 298 296 293 270 278 289
23 46 152 322 345 332 258 277 311 339 321 303 279 269 322 295 303 250 268 278 290 311 14 3 268 288 279 267 255 254 258 254 234 223 230 274 280 276 282 288 276 263 285 292 290
67 23 355 293 301 335 339 301 301 320 294 300 256 313 312 286 287 302 311 306 271 322 347 8 290 335 286 268 261 267 260 258 248 246 245 256 267 272 274 274 272 270 284 281 295
321 4 73 292 321 338 259 311 303 324 279 239 290 310 305 297 309 290 282 270 249 263 307 302 314 335 272 323 312 282 8 320 284 254 236 246 251 278 283 284 337 331 298 287 313